Location: Grand Lay
(47.3253°N, 0.9468°E)
Time: 17:53:32
(UTC+00:00)

Okean 3 - Pass Details

Date: 18 January 2026
Orbit: 542 x 564 km, 82.5° (Epoch: 16 February)

Event Time Altitude Azimuth Distance (km) Brightness Sun altitude
Exits shadow 05:25:59 61° 213° (SSW) 621 3.3 -21.7°
Drops below altitude 10° 05:29:24 10° 180° (S) 1,801 6.0 -21.1°
Sets 05:31:33 0° 178° (S) 2,689 7.0 -20.8°
